Flag for Canada Weather past 2 weeks in Kawartha Lakes, Ontario, Canada

Now
60 °F

Cool.


Feels Like: 60 °F
Forecast: 58 / 77 °F
Wind: 2 mph from Northeast

Location: Lagoon City

Current Time: Aug 30, 2015 at 6:33:33 AM

Latest Report: Aug 30, 2015 at 6:00 AM


Visibility: N/A

Pressure: 30.05 "Hg

Humidity: 94%

Dew point: 58 °F

Location of Kawartha LakesLocation

Historic Weather in Kawartha Lakes — Graph

°F

Kawartha Lakes temperature yesterday

Maximum temperature yesterday: 69 °F (at 5:00 PM)
Minimum temperature yesterday: 64 °F (at 8:00 AM)
Average temperature yesterday: 66 °F

Past Weeks' High & Low Weather Summary

 TemperatureHumidityPressure
High82 °F (Aug 17, 6:00 PM)97% (Aug 15, 7:00 AM)30.20 "Hg (Aug 15, 7:00 AM)
Low53 °F (Aug 22, 6:00 AM)50% (Aug 23, 3:00 PM)29.68 "Hg (Aug 20, 7:00 AM)
Average67 °F78%29.99 "Hg
* Reported Aug 15 5:00 AM — Aug 30 5:00 AM, Kawartha Lakes, Weather by CustomWeather, © 2015

Note: Actual official high and low records may vary slightly from our data, if they occured in-between our weather recording intervals... More about our weather records

Advertising

Kawartha Lakes weather history for previous 24 hours

 ConditionsComfort  
Time TempWeatherWind HumidityBarometerVisibility
5:00 AM
Sun, Aug 30
61 °FCool.2 mph92%30.05 "HgN/A
4:00 AM63 °FMild.1 mph90%30.05 "HgN/A
3:00 AM61 °FCool.3 mph95%30.04 "HgN/A
2:00 AM60 °FCool.1 mph94%30.06 "HgN/A
1:00 AM62 °FMild.No wind95%30.07 "HgN/A
12:00 AM63 °FMild.1 mph92%30.08 "HgN/A
11:00 PM
Sat, Aug 29
64 °FMild.1 mph92%30.09 "HgN/A
10:00 PM64 °FMild.5 mph91%30.08 "HgN/A
9:00 PM65 °FMild.5 mph83%30.07 "HgN/A
8:00 PM67 °FMild.3 mph84%30.08 "HgN/A
7:00 PM68 °FMild.5 mph77%30.08 "HgN/A
6:00 PM69 °FMild.7 mph75%30.08 "HgN/A
5:00 PM69 °FMild.5 mph74%30.08 "HgN/A
4:00 PM69 °FMild.7 mph74%30.09 "HgN/A
3:00 PM68 °FMild.10 mph78%30.11 "HgN/A
2:00 PM68 °FMild.7 mph78%30.11 "HgN/A
1:00 PM68 °FMild.8 mph77%30.13 "HgN/A
12:00 PM65 °FMild.3 mph79%30.13 "HgN/A
11:00 AM66 °FMild.6 mph75%30.12 "HgN/A
10:00 AM65 °FMild.9 mph80%30.12 "HgN/A
9:00 AM65 °FMild.9 mph81%30.12 "HgN/A
8:00 AM64 °FMild.8 mph86%30.13 "HgN/A
7:00 AM65 °FMild.10 mph76%30.12 "HgN/A
6:00 AM66 °FMild.12 mph73%30.11 "HgN/A
Weather by CustomWeather, © 2015

See weather overviewHow to use our weather pages